[[{"header":{"parameterUnit":"m.s-1","parameterCategory":1,"la1":30.2991,"la2":30.254,"lo1":-89.0895,"lo2":-89.0444,"dy":0.0017,"dx":0.0017,"nx":28,"ny":28,"refTime":"2023-08-13T03:00:00:Z","depth":0,"parameterNumber":2,"parameterNumberName":"U-component_of_WINDS"},"data":[0,0,0,0,0,0,0,0,0,0,0,0,0,0,0,0,0,0,0,0,0,0,0,0,0,0,0,0,0,0,0,0,0,0,0,0,0,0,0,0,0,0,0,0,0,0,0,0,0,0,0,0,0,0,0,0,0,0,2.7746,2.7746,0,2.7766,2.7766,2.7766,2.7697,2.7695,2.7693,2.7691,2.7713,2.7715,2.7718,0,0,0,0,0,0,0,0,0,0,0,0,0,2.7648,2.765,2.7746,2.7746,2.7746,2.7765,2.7766,2.7766,2.7698,2.7695,2.7693,2.769,2.7712,2.7715,2.7718,0,0,0,0,0,0,0,0,0,0,0,0,0,2.7681,2.765,2.7746,2.7714,2.7712,2.7765,2.7766,2.7766,2.7698,2.7695,2.7692,2.7689,2.7711,2.7715,2.7718,2.7804,0,0,2.773,2.7732,0,0,0,0,0,0,0,0,2.7679,2.7685,2.7719,2.7717,2.7714,2.7726,2.7739,2.7779,2.7699,2.7703,2.7691,2.7688,2.772,2.7723,2.7733,2.7805,2.7806,2.773,2.7733,2.7734,2.7735,0,0,0,0,0,0,0,2.7677,2.7684,2.7753,2.7719,2.7716,2.7699,2.77,2.7746,2.7729,2.7703,2.7698,2.7701,2.7718,2.773,2.7733,2.7806,2.773,2.7734,2.7736,2.7737,2.7944,2.7948,0,0,0,0,0,0,2.7679,2.7682,2.7753,2.7754,2.7689,2.7703,2.7705,2.7725,2.7728,2.7726,2.7704,2.7698,2.7725,2.7729,2.7734,2.7831,2.7734,2.7738,2.774,2.7941,2.7945,2.7949,0,0,0,0,0,0,2.7677,2.7686,2.7752,2.7717,2.7724,2.7708,2.7732,2.7727,2.7739,2.7729,2.7725,2.7719,2.7723,2.7728,2.7786,2.7831,2.7739,2.7743,2.7937,2.7942,2.7947,2.8028,0,0,0,0,0,0,2.7675,2.7686,2.7718,2.7718,2.7726,2.7804,2.7734,2.773,2.7745,2.7738,2.7742,2.774,2.7721,2.7781,2.779,2.7834,2.7746,2.7933,2.794,2.7945,2.8021,2.8035,2.8047,0,0,0,0,0,2.7671,2.7741,2.772,2.7729,2.7766,2.7807,2.7812,2.7788,2.7749,2.7781,2.7774,2.774,2.7825,2.7787,2.7797,2.7843,2.793,2.7938,2.7945,2.8015,2.8032,2.8046,0,0,0,0,0,0,2.7749,2.7741,2.7717,2.779,2.7799,2.7796,2.7836,2.7807,2.7828,2.782,2.779,2.7791,2.7854,2.7854,2.7812,2.7924,2.7871,2.788,2.7921,2.7937,2.795,2.7948,2.7749,0,0,0,0,0,2.7774,2.7808,2.7799,2.7864,2.7869,2.7852,2.7869,2.7849,2.7858,2.7862,2.7859,2.787,2.7898,2.7918,2.7944,2.8021,2.802,2.8058,2.807,2.8081,2.8089,2.8127,2.8143,2.7973,2.7973,2.7972,0,0,2.7827,2.7827,2.785,2.7879,2.7884,2.7919,2.7856,2.7896,2.7921,2.7868,2.7921,2.792,2.7929,2.7996,2.8025,2.7999,2.8136,2.809,2.8099,2.8101,2.8136,2.8152,2.8167,2.7978,2.7977,2.7976,0,0,2.7941,2.7945,2.7997,2.8003,2.8011,2.7999,2.8011,2.8011,2.8008,2.806,2.802,2.805,2.8101,2.8108,2.8118,2.8232,2.82,2.8241,2.8308,2.8345,2.8358,2.837,2.8408,2.8423,2.825,2.825,2.825,0,2.8006,2.8056,2.8028,2.807,2.8083,2.8035,2.8087,2.8095,2.8111,2.8121,2.8091,2.8151,2.8154,2.822,2.8248,2.8259,2.8271,2.824,2.8359,2.837,2.8381,2.8417,2.8431,2.8255,2.8254,2.8254,2.8253,0,2.8134,2.817,2.8211,2.8226,2.8244,2.8291,2.8269,2.8291,2.8269,2.8259,2.8312,2.8314,2.8338,2.8352,2.8333,2.8415,2.8398,2.8364,2.831,2.8402,2.8435,2.8449,2.8262,2.826,2.8258,2.8257,0,0,2.8299,2.8295,2.8311,2.8316,2.832,2.8347,2.8391,2.8413,2.8431,2.8444,2.8478,2.8521,2.8488,2.85,2.848,2.8513,2.86,2.8475,2.8474,2.8496,2.8688,2.8713,2.8729,2.8579,2.8582,2.8584,2.8687,0,2.8408,2.8482,2.8457,2.8532,2.8563,2.8517,2.8555,2.8561,2.8553,2.8578,2.8568,2.8598,2.8554,2.8561,2.8591,2.8583,2.8638,2.8575,2.861,2.8612,2.8607,2.8747,2.8773,2.8871,2.87,2.8702,2.8704,0,2.8547,2.8562,2.864,2.8636,2.8648,2.8682,2.8699,2.8724,2.8729,2.8721,2.8733,2.8705,2.8747,2.8693,2.8749,2.8707,2.872,2.8718,2.8721,2.8722,2.8662,2.875,2.8901,2.8915,2.8724,2.8723,2.8721,0,2.8655,2.8696,2.8747,2.8753,2.875,2.8775,2.8775,2.8777,2.8791,2.8806,2.8815,2.8835,2.8846,2.8862,2.884,2.8803,2.8898,2.8844,2.8891,2.8892,2.8913,2.8911,2.9066,2.8924,2.8924,2.8924,2.8923,0,2.878,2.8829,2.8795,2.8827,2.8879,2.8849,2.8902,2.8897,2.8899,2.8928,2.889,2.8918,2.8888,2.8913,2.8897,2.8944,2.895,2.8943,2.8938,2.8946,2.8946,2.8953,2.8945,2.8927,2.8927,2.8926,2.8925,0,2.891,2.889,2.8942,2.8934,2.8933,2.8972,2.8965,2.8993,2.8981,2.9017,2.9024,2.9006,2.9033,2.9013,2.904,2.9029,2.9091,2.9077,2.9089,2.9084,2.9132,2.9127,2.9295,2.9315,2.9162,2.9163,2.9165,0,2.899,2.9026,2.9021,2.9036,2.9038,2.9065,2.9078,2.905,2.9065,2.9072,2.9099,2.9122,2.9139,2.9185,2.9174,2.9194,2.9179,2.9237,2.9182,2.9188,2.9177,2.9175,2.9177,2.9247,2.9249,2.9251,2.9252,0,2.9133,2.912,2.9141,2.9157,2.9173,2.9185,2.9194,2.9209,2.9179,2.9199,2.9225,2.9238,2.9264,2.9288,2.9303,2.9303,2.9272,2.9269,2.9281,2.9288,2.9293,2.9289,2.9117,2.9265,2.9264,2.9263,2.9262,2.9262,2.9239,2.9267,2.9267,2.929,2.9293,2.9301,2.9326,2.9316,2.9337,2.9355,2.9338,2.9369,2.9371,2.9388,2.9392,2.9415,2.9392,2.9409,2.9413,2.9418,2.9423,2.929,2.9419,2.9418,2.9418,2.9417,2.9417,0,2.9378,2.9375,2.9396,2.9408,2.9425,2.9394,2.9401,2.9418,2.9445,2.945,2.9466,2.9495,2.9517,2.9507,2.9525,2.9546,2.9532,2.9552,2.9549,2.9549,2.9445,2.9432,2.9563,2.9563,2.9562,2.9562,2.9562,2.9562,2.9452,2.9497,2.9485,2.9531,2.9527,2.9556,2.9563,2.957,2.9572,2.9606,2.9623,2.9616,2.9613,2.9631,2.9649,2.9646,2.9654,2.9678,2.9669,2.9571,2.9557,2.9543,2.9531,2.968,2.968,2.9771,2.9772,2.9773]},{"header":{"parameterUnit":"m.s-1","parameterCategory":1,"la1":30.2991,"la2":30.254,"lo1":-89.0895,"lo2":-89.0444,"dy":0.0017,"dx":0.0017,"nx":28,"ny":28,"refTime":"2023-08-13T03:00:00:Z","depth":0,"parameterNumber":3,"parameterNumberName":"V-component_of_WINDS"},"data":[0,0,0,0,0,0,0,0,0,0,0,0,0,0,0,0,0,0,0,0,0,0,0,0,0,0,0,0,0,0,0,0,0,0,0,0,0,0,0,0,0,0,0,0,0,0,0,0,0,0,0,0,0,0,0,0,0,0,3.7314,3.7314,0,3.7286,3.7286,3.7286,3.7219,3.7217,3.7216,3.7214,3.7186,3.7187,3.7187,0,0,0,0,0,0,0,0,0,0,0,0,0,3.7311,3.7311,3.7314,3.7314,3.7314,3.7286,3.7286,3.7286,3.7219,3.7217,3.7215,3.7214,3.7186,3.7187,3.7187,0,0,0,0,0,0,0,0,0,0,0,0,0,3.73,3.7311,3.7315,3.7277,3.7273,3.7286,3.7286,3.7285,3.7219,3.7217,3.7215,3.7213,3.7186,3.7187,3.7187,3.7235,0,0,3.719,3.719,0,0,0,0,0,0,0,0,3.7301,3.7301,3.7283,3.728,3.7276,3.7254,3.7274,3.7268,3.722,3.724,3.7214,3.7212,3.721,3.7209,3.7208,3.7233,3.7232,3.719,3.7191,3.7191,3.7191,0,0,0,0,0,0,0,3.7302,3.7302,3.7303,3.7283,3.7278,3.7262,3.7258,3.7273,3.7237,3.7238,3.7233,3.723,3.7208,3.7208,3.7207,3.7232,3.719,3.7191,3.7191,3.7192,3.7292,3.7294,0,0,0,0,0,0,3.7308,3.7303,3.7304,3.7302,3.7283,3.7264,3.7259,3.7263,3.7237,3.7231,3.7232,3.7227,3.7207,3.7206,3.7206,3.7258,3.7191,3.7192,3.7192,3.729,3.7293,3.7295,0,0,0,0,0,0,3.7308,3.7309,3.7305,3.7301,3.7299,3.7266,3.727,3.7263,3.7263,3.7233,3.7226,3.7239,3.7206,3.7205,3.7228,3.7256,3.7192,3.7193,3.7287,3.7291,3.7294,3.7363,0,0,0,0,0,0,3.7308,3.7309,3.7327,3.7302,3.73,3.7327,3.7272,3.7264,3.7265,3.7258,3.7237,3.7231,3.7204,3.7227,3.7228,3.7256,3.7194,3.7285,3.7289,3.7293,3.7358,3.7368,3.7377,0,0,0,0,0,3.7308,3.7348,3.7328,3.7329,3.7321,3.7329,3.7328,3.7296,3.7267,3.7284,3.7265,3.7232,3.7253,3.723,3.7231,3.7259,3.7283,3.7288,3.7292,3.7354,3.7366,3.7377,0,0,0,0,0,0,3.7377,3.7344,3.7321,3.7354,3.7345,3.7318,3.7338,3.731,3.7309,3.7303,3.7263,3.7259,3.7287,3.7276,3.725,3.7303,3.7263,3.7268,3.7309,3.732,3.733,3.7331,3.7194,0,0,0,0,0,3.7396,3.7405,3.7376,3.7408,3.7404,3.7373,3.7375,3.7351,3.734,3.7335,3.7317,3.7308,3.7312,3.7316,3.7319,3.7357,3.735,3.7377,3.7387,3.7394,3.7399,3.7417,3.7428,3.7311,3.7311,3.7311,0,0,3.7435,3.7418,3.7427,3.7421,3.7411,3.7421,3.737,3.7383,3.739,3.7338,3.7357,3.7344,3.7331,3.7361,3.7374,3.7353,3.743,3.7401,3.7407,3.7407,3.7423,3.7434,3.7444,3.7314,3.7314,3.7313,0,0,3.7511,3.75,3.7524,3.7515,3.7501,3.7479,3.7485,3.7463,3.7451,3.7471,3.7431,3.7439,3.7448,3.744,3.7437,3.751,3.7479,3.7512,3.7561,3.7579,3.7588,3.7596,3.762,3.7629,3.7517,3.7517,3.7517,0,3.7562,3.7575,3.7541,3.7556,3.7554,3.7507,3.7531,3.7524,3.7512,3.7511,3.7488,3.7497,3.7485,3.7512,3.753,3.753,3.7534,3.7513,3.7589,3.7597,3.7604,3.7626,3.7636,3.7521,3.7521,3.752,3.752,0,3.7637,3.7647,3.7669,3.7657,3.7657,3.7677,3.7645,3.7651,3.7627,3.7608,3.7627,3.7612,3.7609,3.7614,3.7592,3.7638,3.7625,3.7597,3.7555,3.7619,3.764,3.7648,3.7527,3.7525,3.7524,3.7523,0,0,3.7754,3.7723,3.7731,3.7724,3.7705,3.7712,3.773,3.7727,3.7731,3.7725,3.7738,3.7746,3.7719,3.7716,3.7692,3.7708,3.7764,3.7677,3.7676,3.7692,3.7812,3.7833,3.7843,3.7745,3.7746,3.7748,3.7813,0,3.7824,3.7851,3.7821,3.7854,3.7862,3.7818,3.7833,3.7823,3.7806,3.7811,3.7792,3.7798,3.7763,3.776,3.7774,3.7755,3.7788,3.775,3.7755,3.7756,3.7758,3.7854,3.7876,3.7938,3.7821,3.7822,3.7823,0,3.7909,3.7905,3.7939,3.7916,3.7919,3.7933,3.7927,3.7933,3.792,3.7906,3.7903,3.7874,3.7889,3.785,3.787,3.7845,3.7845,3.7836,3.7838,3.7835,3.7792,3.7853,3.7958,3.7966,3.7836,3.7835,3.7834,0,3.7988,3.7992,3.8012,3.8009,3.7983,3.7994,3.7984,3.7969,3.7969,3.7965,3.7964,3.7963,3.7961,3.796,3.7931,3.7906,3.7954,3.7913,3.7942,3.7943,3.7952,3.7952,3.8057,3.7957,3.7957,3.7956,3.7956,0,3.8068,3.809,3.8047,3.806,3.8084,3.8048,3.8073,3.8058,3.8046,3.8054,3.8017,3.8026,3.7988,3.7993,3.7971,3.7989,3.799,3.7978,3.7972,3.798,3.7982,3.7979,3.7973,3.7959,3.7958,3.7958,3.7957,0,3.816,3.8132,3.8151,3.8126,3.812,3.8138,3.8116,3.8127,3.8108,3.8119,3.812,3.809,3.8093,3.8065,3.8064,3.8048,3.8077,3.8064,3.8081,3.8076,3.8106,3.8103,3.8212,3.8223,3.8118,3.8119,3.812,0,3.8211,3.8227,3.8203,3.8206,3.8198,3.8203,3.8203,3.817,3.8171,3.8157,3.8169,3.817,3.8168,3.8176,3.8154,3.8153,3.8138,3.8176,3.8138,3.8146,3.8136,3.8135,3.8136,3.8184,3.8185,3.8186,3.8187,0,3.8305,3.829,3.8291,3.8288,3.8288,3.8284,3.8277,3.8281,3.8245,3.8248,3.8251,3.825,3.8249,3.8249,3.8243,3.8233,3.8204,3.82,3.8206,3.8214,3.8222,3.8216,3.8101,3.8197,3.8196,3.8195,3.8195,3.8194,3.8377,3.8388,3.8373,3.8375,3.8366,3.836,3.8368,3.835,3.8352,3.8347,3.8328,3.8335,3.8321,3.831,3.8302,3.8307,3.8288,3.8298,3.83,3.8302,3.8307,3.8224,3.8306,3.8306,3.8305,3.8305,3.8305,0,3.8466,3.8454,3.8457,3.8448,3.8449,3.8422,3.8413,3.8416,3.8422,3.8412,3.8411,3.8415,3.8415,3.8393,3.8391,3.8398,3.8385,3.8399,3.8397,3.8395,3.8324,3.8318,3.841,3.841,3.841,3.841,3.841,3.841,3.8513,3.8531,3.8515,3.8527,3.8515,3.8521,3.8518,3.8512,3.8504,3.8509,3.8509,3.8495,3.848,3.8476,3.8475,3.8468,3.8468,3.8487,3.8476,3.841,3.84,3.839,3.8384,3.8487,3.8488,3.8545,3.8545,3.8546]}]]